Back to catalog

COSMOS 2251 DEB

AliveLEO
NORAD 34477·DEBRIS·🇷🇺 Russia

Launched Jun 16, 1993 from Plesetsk Cosmodrome

Loading…

Next Passes (next 24 hours)

TLE

FreshSource: Space-Track

Epoch: Sep 14, 2026, 03:20 UTC

1 34477U 93036TW  26257.13909779  .00001869  00000-0  39624-3 0  9994
2 34477  73.9743 264.0056 0073238  23.3017  87.5868 14.58265776926383

Track COSMOS 2251 DEB in real time with AllMySat

Download on the App Store